Dewpoint
12 12 12 11 9 6 8 9 7 9 10 10 10 11 11 10 9 5 -1 2 -1 -3 5 8 1 -5 -5 -5 11 10 9 7 4 7 9 10 11 11 12 12 12 11 11
12 12 12 12 11 9 8 9 9 9 9 9 8 8 3 1 1 0 4 5 2 1 -1 -3 -3 -5 -8 -7 4 11 8 5 7 5 9 10 12 12 12 12 12 11 11
12 12 12 12 12 12 11 10 9 8 7 7 6 4 3 4 4 7 8 8 6 5 3 0 -1 -2 -7 -8 -4 11 8 8 8 8 5 3 9 12 11 12 12 11 11
12 13 13 13 12 12 12 12 12 11 11 10 9 9 8 10 7 10 11 10 9 7 6 4 1 1 -2 -8 -8 6 11 11 11 10 9 6 7 7 11 9 8 7 6
11 11 11 11 11 11 11 11 11 10 10 10 10 10 10 10 9 8 10 10 10 9 8 7 4 2 3 0 -8 -7 9 11 11 11 10 11 10 10 4 0 1 1 -1
9 9 9 7 7 8 8 8 9 9 9 9 9 9 9 10 10 10 9 9 9 9 9 7 7 6 3 5 2 -5 -7 7 10 11 10 11 12 11 6 2 -0 -2 -3
8 6 6 4 1 -1 -2 -3 -3 -2 1 5 8 9 9 9 9 10 10 10 10 10 10 9 8 8 7 3 6 3 -1 -5 -3 3 9 11 11 12 7 3 -0 1 -1
9 7 4 5 2 -1 -3 -3 -4 -2 -1 -2 -2 -2 2 7 9 9 10 10 10 10 10 10 9 8 9 8 3 5 5 1 0 -0 6 10 12 13 11 4 0 7 5
5 5 3 3 2 1 -1 -2 -3 -3 -2 -0 0 1 2 6 8 7 8 9 10 10 10 10 9 10 9 9 9 4 2 4 5 4 4 8 10 12 12 5 3 10 10
3 3 2 1 1 2 2 2 1 -0 0 0 1 1 3 3 4 4 6 6 6 2 4 9 9 9 10 10 9 9 3 3 5 9 7 6 7 10 11 9 5 9 9
5 4 3 2 2 2 3 4 4 3 3 3 3 3 2 3 3 3 4 5 7 7 7 7 8 9 10 10 10 10 10 2 5 10 9 6 7 8 9 11 2 6 9
4 2 2 1 1 2 3 4 4 4 4 5 5 4 4 3 4 5 5 6 8 8 7 8 6 8 8 9 10 10 10 10 2 9 8 8 7 8 9 11 7 4 6
-0 -1 -0 -0 -0 0 2 4 5 5 5 5 5 4 4 2 4 4 5 6 7 7 7 8 8 9 9 8 9 11 11 11 9 2 9 9 8 8 8 9 7 7 4
-3 -3 -2 -1 -0 0 1 2 4 5 6 6 6 5 4 3 3 5 5 6 6 7 7 8 8 8 9 9 9 9 11 11 11 5 6 7 7 8 7 7 9 10 10
-7 -7 -5 -3 -1 0 1 2 3 4 5 5 5 5 5 5 4 4 4 6 7 7 7 7 7 8 8 8 9 9 9 11 11 11 10 9 8 6 5 4 7 9 10
-14 -13 -13 -11 -9 -6 -3 -0 1 2 3 4 4 3 4 4 4 4 3 4 5 6 6 6 6 7 8 8 6 8 9 9 11 10 11 10 9 8 6 2 -0 6 9
-18 -18 -17 -17 -18 -16 -17 -17 -16 -16 -14 -11 -7 -7 -6 -3 1 2 4 4 4 5 6 6 6 6 6 7 7 6 6 8 9 10 11 11 11 10 9 9 2 -0 5
-18 -17 -18 -18 -17 -18 -18 -19 -20 -20 -20 -21 -21 -21 -20 -20 -19 -16 -10 -4 1 3 4 4 4 4 3 4 5 4 4 4 5 7 10 11 12 11 10 10 8 3 -1
-18 -18 -17 -17 -17 -18 -19 -19 -20 -21 -22 -23 -25 -25 -25 -26 -27 -27 -26 -26 -23 -14 -7 -1 2 3 3 3 4 4 2 1 3 4 4 7 10 10 10 11 10 10 7
-18 -18 -18 -18 -17 -18 -18 -18 -19 -21 -23 -25 -26 -28 -29 -29 -30 -31 -31 -31 -31 -30 -29 -27 -18 -8 -3 2 3 3 3 4 3 1 1 3 4 7 10 11 11 11 10
-18 -18 -18 -18 -18 -19 -18 -19 -20 -22 -25 -27 -28 -29 -30 -31 -32 -33 -33 -33 -34 -34 -34 -33 -33 -31 -25 -18 -6 0 2 2 1 1 0 -2 -2 -1 3 6 9 11 11
-17 -17 -18 -18 -19 -20 -22 -23 -24 -25 -26 -28 -29 -30 -31 -32 -32 -33 -32 -33 -33 -33 -33 -34 -33 -34 -34 -31 -24 -19 1 3 1 1 0 0 -0 0 -1 -4 -1 3 9
-17 -17 -18 -19 -20 -21 -23 -24 -25 -26 -28 -29 -30 -31 -31 -30 -29 -29 -29 -29 -30 -29 -29 -29 -30 -28 -30 -34 -27 -15 1 4 4 4 5 6 6 5 4 2 2 4 4
-16 -17 -18 -19 -21 -22 -23 -25 -26 -26 -27 -27 -26 -27 -27 -27 -26 -26 -26 -26 -26 -26 -26 -26 -26 -26 -25 -27 -30 -26 -6 0 1 2 3 3 4 4 5 6 6 6 6
-16 -17 -18 -20 -22 -23 -24 -25 -25 -25 -24 -24 -24 -24 -24 -24 -24 -24 -24 -24 -24 -24 -24 -24 -24 -24 -24 -22 -24 -25 -24 -25 -21 -13 -5 1 3 3 3 5 8 8 7
-16 -18 -20 -21 -23 -24 -24 -23 -22 -22 -22 -22 -22 -22 -22 -23 -22 -22 -22 -22 -21 -21 -22 -22 -22 -22 -23 -22 -21 -23 -22 -18 -15 -13 -6 -1 2 3 4 2 3 6 6
Wind_Speed
10 8 8 11 11 12 12 12 13 12 12 13 13 12 11 9 8 7 8 10 10 9 9 8 9 8 7 7 9 9 11 11 11 10 10 11 11 11 12 12 12 13 14
11 8 9 10 11 12 12 12 11 11 10 10 9 8 8 9 8 8 9 9 10 10 9 8 8 9 8 7 8 10 10 11 11 11 10 9 10 10 12 12 12 12 12
15 12 10 10 11 11 11 11 10 9 8 8 8 8 8 9 9 8 8 8 9 9 9 8 9 9 9 8 7 10 10 10 9 10 10 9 6 9 11 12 11 11 9
13 15 15 11 11 10 9 9 8 7 7 7 7 7 7 7 7 6 6 6 6 7 7 7 7 8 8 7 7 8 9 8 6 5 8 8 6 6 8 8 8 8 6
12 11 14 15 13 12 10 8 7 7 6 6 6 5 5 6 5 5 5 5 5 6 6 5 5 6 6 6 5 6 9 7 6 5 7 5 4 3 6 8 8 7 7
13 10 10 11 11 13 12 9 8 7 7 6 6 6 5 5 5 5 5 5 5 6 7 5 4 3 3 3 4 4 7 10 8 6 5 4 3 4 5 5 6 7 8
11 8 7 8 8 9 10 11 11 10 9 8 7 7 6 5 5 4 5 5 6 6 6 7 5 4 3 2 1 2 4 6 8 8 7 9 6 7 7 6 6 6 9
8 7 5 6 7 8 7 8 8 10 11 10 9 6 5 4 5 5 5 6 7 7 7 7 7 7 5 4 4 3 3 6 7 7 7 6 7 8 10 8 6 7 8
6 5 4 3 5 5 4 4 3 3 3 5 4 4 4 2 3 6 7 8 8 10 10 9 8 7 8 7 6 6 6 5 8 8 7 7 7 5 10 9 8 7 7
6 6 5 3 3 2 2 2 1 1 2 1 0 1 3 3 3 4 5 9 12 12 12 11 10 9 9 9 8 7 6 8 9 8 8 7 7 6 9 10 9 9 8
3 3 3 2 2 3 3 4 3 3 3 4 3 3 5 6 6 7 6 5 6 8 8 9 11 10 10 11 10 10 9 8 12 11 11 9 8 9 7 12 11 11 10
5 5 4 2 1 2 4 6 5 5 7 7 6 6 6 7 6 5 6 8 7 8 8 8 9 9 10 11 12 13 12 8 11 16 14 12 12 10 9 12 15 13 14
7 5 5 4 3 1 2 4 6 7 7 9 9 9 9 8 9 10 10 9 9 11 10 10 8 8 11 12 12 13 14 13 9 16 18 15 14 14 15 11 18 14 16
7 8 7 6 5 4 3 2 3 4 6 7 8 8 8 9 10 11 11 11 11 12 13 13 9 10 11 11 13 14 15 16 15 12 17 18 17 17 18 18 17 17 19
8 9 9 8 7 7 6 6 6 5 6 8 10 12 10 10 10 10 11 13 14 14 14 15 15 15 13 15 15 16 17 17 18 19 18 16 18 21 20 20 20 20 18
12 12 13 12 12 11 10 10 10 9 9 9 9 11 11 11 10 11 11 13 14 16 15 16 17 18 20 21 21 21 18 18 19 21 23 21 19 19 20 20 20 22 20
13 14 14 15 15 14 14 14 13 13 12 11 11 11 11 11 11 13 13 13 15 16 17 18 19 21 22 24 24 22 24 21 20 21 21 24 24 24 21 18 20 22 23
11 11 12 12 12 12 13 13 14 14 14 13 12 13 13 14 14 14 15 15 15 17 19 19 20 21 22 22 24 25 22 23 25 23 24 25 24 26 24 23 21 22 24
9 8 7 8 9 10 11 11 12 12 14 15 16 16 16 17 18 18 18 18 18 18 19 21 21 21 22 24 26 26 26 26 24 24 25 25 27 28 28 28 25 22 23
7 8 9 10 10 11 12 12 12 14 16 17 18 19 20 20 21 22 22 22 22 21 21 22 23 22 22 25 28 29 30 28 27 28 28 27 27 29 31 30 31 29 26
6 7 9 11 13 15 17 19 20 22 24 24 24 25 24 24 24 24 25 26 26 26 25 25 26 26 25 26 28 32 32 31 32 32 30 29 29 28 30 30 33 34 33
5 8 10 13 16 19 21 24 25 27 27 28 28 27 28 28 27 27 28 28 28 29 28 27 28 29 27 24 25 26 21 27 29 26 26 26 27 27 28 29 30 32 35
5 10 13 16 20 22 24 26 27 28 30 31 31 32 31 30 29 28 27 28 28 28 29 29 28 28 30 27 23 14 10 9 22 18 18 17 18 21 23 25 24 25 29
8 11 14 18 21 24 26 28 29 31 32 32 32 31 31 29 29 29 29 28 29 28 29 28 28 28 28 31 30 23 18 23 11 18 27 33 29 23 17 18 24 23 23
8 13 17 19 23 25 27 28 29 30 30 32 33 35 35 35 32 31 31 31 30 29 29 29 29 29 28 29 29 32 33 31 31 34 34 36 42 40 33 26 23 22 21
11 16 19 22 25 27 29 29 30 31 32 33 34 35 35 35 35 33 33 34 33 32 31 31 31 31 30 30 30 31 32 31 28 27 26 32 32 37 36 38 35 31 27
Wind_Direction
84 83 91 90 91 93 91 89 89 85 81 83 80 80 81 83 81 73 69 75 71 71 74 52 45 55 68 88 98 103 100 103 102 104 104 104 111 119 121 123 122 122 120
90 80 81 87 89 85 81 82 80 81 78 75 75 73 61 67 70 73 79 77 73 67 62 53 48 52 64 85 118 111 109 107 103 108 112 110 107 112 125 127 130 128 122
87 81 79 86 90 89 88 85 85 81 76 72 72 70 66 64 68 78 75 69 62 54 52 53 53 54 64 82 107 126 121 114 110 112 122 134 124 125 127 128 136 127 128
102 101 86 77 81 81 81 80 77 76 73 66 58 53 54 58 64 66 64 59 48 50 45 48 48 54 64 75 100 140 135 130 124 116 121 125 126 159 166 158 158 157 155
101 99 98 99 87 74 68 67 65 59 54 48 45 44 40 38 40 40 35 26 17 24 34 38 46 44 53 68 92 127 165 161 153 145 145 126 156 166 175 172 175 170 156
99 95 88 90 90 103 90 66 53 47 41 34 29 25 23 23 19 10 2 0 358 359 360 7 13 27 43 62 73 114 167 191 197 186 184 201 206 204 196 183 168 159 151
95 93 87 84 84 81 76 76 65 47 37 32 26 18 9 6 5 355 349 342 337 338 340 338 338 331 335 337 136 121 178 201 214 221 217 219 245 234 204 193 180 167 164
96 99 100 84 74 69 72 77 77 76 67 58 50 45 26 20 13 357 340 330 325 319 315 318 317 312 300 305 302 257 218 218 219 220 213 202 233 234 209 199 191 171 173
109 123 122 101 76 59 49 56 67 79 87 79 66 48 24 36 1 352 339 338 334 326 315 306 301 296 297 294 292 290 261 234 219 227 209 206 222 234 205 201 197 192 194
100 117 124 126 138 128 104 94 303 299 305 315 33 334 3 319 350 4 337 338 333 324 309 302 301 295 288 282 288 285 268 244 228 229 234 216 226 241 213 213 206 206 208
84 89 103 120 147 180 183 182 221 248 254 258 257 282 296 309 304 297 312 316 335 326 327 309 304 300 296 292 284 275 270 247 229 229 236 245 218 242 230 222 220 220 218
55 55 53 53 111 195 210 206 223 242 256 264 264 267 267 270 279 280 291 284 282 293 300 292 287 295 303 300 288 275 262 248 233 227 241 246 227 238 242 234 224 229 224
45 42 45 35 33 33 236 231 233 238 252 263 270 269 272 266 256 258 262 265 272 281 282 282 300 292 298 299 293 279 268 255 242 227 232 241 240 233 245 238 218 239 227
54 51 52 46 39 37 22 325 283 266 271 279 290 287 281 271 268 264 266 264 265 268 272 274 277 295 295 293 289 283 276 264 252 229 239 249 250 244 247 244 241 239 237
68 63 60 53 44 37 28 26 16 346 320 315 309 313 307 299 292 287 277 271 271 271 271 270 265 262 265 271 275 281 276 272 260 252 245 248 259 257 255 250 244 244 245
73 69 68 64 57 49 42 34 29 22 16 1 353 350 346 337 322 308 295 283 278 275 274 275 273 269 262 261 265 268 270 272 265 257 255 249 251 255 256 254 243 241 243
75 72 69 64 58 50 45 41 35 31 24 16 9 0 352 342 333 323 314 304 293 287 285 279 273 271 271 268 269 267 265 261 260 256 256 251 248 248 250 250 249 240 238
76 67 61 57 49 43 35 29 25 17 10 8 1 352 347 342 336 330 322 314 305 299 296 293 289 281 278 276 271 268 265 262 258 254 251 253 251 249 253 252 246 244 239
78 74 65 52 41 35 28 19 13 7 358 356 351 344 338 335 330 325 320 317 313 306 301 297 293 296 289 282 279 273 269 266 260 254 250 249 249 249 250 251 251 247 246
73 51 35 24 15 8 359 354 349 350 348 345 340 337 333 328 324 320 316 313 308 304 301 298 296 291 295 291 284 281 274 269 265 261 255 252 248 247 251 251 250 248 246
51 33 21 10 5 355 350 346 343 343 342 338 335 333 327 322 318 315 311 309 307 304 300 300 297 296 290 292 294 282 274 273 271 267 266 264 260 256 251 251 250 251 250
35 22 12 6 360 354 351 348 344 338 333 330 327 324 323 320 318 314 311 307 304 302 299 296 296 294 291 294 305 303 305 292 278 271 266 264 261 257 254 248 248 249 250
19 13 5 358 354 350 344 338 333 329 327 326 324 323 321 319 317 313 309 305 301 299 298 297 296 295 292 282 291 290 306 282 289 266 254 245 243 252 257 252 242 249 252
9 0 351 349 345 341 338 334 332 331 327 325 323 319 316 315 313 311 310 306 303 300 297 295 293 291 291 286 280 277 247 261 294 296 273 259 262 259 258 249 243 247 250
345 344 342 339 338 335 331 328 327 325 323 322 322 321 321 321 318 316 313 310 305 301 298 296 292 288 286 287 281 280 277 270 265 270 278 279 274 269 260 250 244 247 250
335 333 332 331 331 330 330 331 330 328 326 325 324 322 321 319 317 316 314 311 308 305 300 297 293 289 285 283 283 277 276 279 271 268 272 258 271 263 263 254 248 243 244
Height
1565 1565 1564 1564 1563 1562 1561 1561 1560 1561 1560 1561 1560 1561 1561 1560 1560 1559 1558 1558 1557 1556 1555 1554 1553 1552 1551 1550 1550 1550 1549 1550 1549 1550 1550 1551 1550 1550 1551 1551 1552 1552 1553
1567 1567 1568 1565 1566 1564 1564 1563 1563 1563 1563 1563 1563 1562 1562 1562 1561 1561 1560 1559 1558 1558 1557 1556 1555 1553 1552 1552 1552 1551 1551 1551 1551 1551 1552 1552 1552 1552 1552 1553 1553 1554 1554
1567 1568 1569 1568 1567 1566 1565 1564 1564 1564 1564 1563 1563 1563 1563 1562 1562 1562 1561 1560 1560 1559 1558 1557 1555 1555 1553 1553 1553 1553 1552 1552 1552 1552 1552 1553 1554 1554 1553 1554 1555 1555 1556
1566 1567 1568 1569 1568 1567 1566 1566 1566 1565 1565 1565 1564 1564 1564 1564 1563 1563 1562 1561 1561 1560 1559 1558 1557 1555 1554 1553 1553 1554 1553 1553 1553 1553 1553 1553 1554 1555 1555 1555 1555 1556 1556
1569 1571 1569 1567 1568 1568 1568 1568 1567 1566 1566 1566 1566 1566 1565 1564 1564 1564 1563 1562 1562 1560 1559 1559 1558 1557 1556 1555 1555 1554 1554 1554 1554 1553 1553 1554 1554 1555 1555 1555 1556 1556 1557
1572 1572 1571 1570 1569 1566 1567 1568 1569 1568 1568 1567 1567 1567 1566 1565 1565 1565 1564 1563 1563 1561 1560 1559 1558 1557 1557 1556 1555 1555 1555 1555 1555 1554 1553 1554 1554 1555 1555 1555 1556 1556 1557
1573 1573 1574 1573 1571 1570 1570 1568 1568 1569 1569 1569 1568 1568 1567 1566 1565 1565 1564 1563 1563 1562 1561 1559 1559 1558 1557 1557 1556 1556 1555 1555 1555 1555 1555 1555 1555 1555 1555 1555 1556 1556 1557
1575 1575 1575 1574 1573 1572 1571 1570 1569 1568 1568 1569 1568 1567 1565 1565 1565 1565 1564 1563 1562 1561 1561 1560 1558 1558 1558 1557 1556 1556 1555 1554 1554 1554 1554 1554 1555 1554 1554 1555 1556 1556 1557
1576 1575 1575 1575 1574 1574 1573 1571 1570 1569 1568 1568 1568 1567 1566 1565 1564 1564 1564 1563 1562 1561 1560 1559 1558 1556 1556 1556 1556 1555 1555 1554 1553 1552 1553 1553 1553 1554 1553 1554 1555 1556 1557
1576 1575 1575 1575 1574 1573 1572 1571 1571 1570 1570 1569 1568 1567 1567 1565 1564 1562 1562 1562 1561 1560 1559 1557 1556 1556 1555 1554 1554 1554 1553 1553 1553 1552 1552 1551 1552 1553 1553 1554 1555 1555 1556
1575 1575 1574 1574 1574 1573 1571 1571 1570 1569 1569 1568 1567 1567 1567 1566 1564 1562 1561 1560 1559 1558 1557 1556 1555 1553 1553 1553 1552 1551 1551 1551 1551 1550 1550 1550 1551 1551 1551 1553 1553 1554 1555
1574 1573 1573 1573 1572 1572 1571 1570 1570 1569 1568 1567 1567 1566 1565 1564 1563 1562 1561 1560 1558 1556 1555 1553 1553 1552 1551 1550 1550 1550 1549 1549 1548 1548 1548 1549 1549 1549 1549 1550 1552 1553 1554
1573 1574 1573 1572 1571 1570 1570 1569 1568 1568 1567 1566 1565 1564 1563 1562 1561 1560 1559 1558 1557 1555 1553 1552 1551 1550 1549 1548 1547 1546 1546 1547 1546 1545 1546 1547 1547 1547 1547 1547 1548 1549 1550
1575 1574 1573 1572 1571 1569 1568 1567 1566 1566 1565 1564 1562 1562 1561 1560 1559 1558 1557 1556 1554 1552 1551 1550 1549 1548 1547 1546 1544 1543 1543 1543 1543 1543 1544 1544 1544 1544 1545 1545 1546 1546 1547
1575 1574 1573 1572 1571 1569 1568 1567 1566 1565 1563 1562 1561 1559 1559 1558 1557 1556 1555 1553 1552 1550 1549 1547 1546 1545 1544 1542 1541 1540 1540 1539 1539 1539 1539 1540 1540 1541 1541 1542 1542 1543 1543
1577 1575 1574 1573 1572 1570 1569 1568 1567 1566 1564 1563 1561 1559 1559 1557 1555 1554 1552 1550 1548 1547 1546 1544 1542 1541 1540 1538 1537 1536 1535 1535 1535 1534 1534 1536 1536 1537 1537 1537 1538 1538 1539
1578 1578 1576 1575 1574 1573 1571 1569 1568 1566 1565 1563 1562 1560 1558 1556 1554 1552 1550 1549 1546 1544 1542 1541 1539 1537 1535 1534 1532 1531 1530 1530 1529 1529 1529 1530 1531 1532 1532 1532 1533 1534 1535
1581 1580 1579 1578 1577 1575 1573 1571 1570 1568 1566 1564 1563 1561 1558 1556 1554 1551 1548 1546 1544 1542 1539 1537 1535 1533 1531 1528 1526 1525 1525 1524 1524 1523 1523 1524 1524 1526 1527 1528 1528 1528 1530
1582 1580 1579 1577 1576 1574 1573 1572 1570 1568 1566 1564 1562 1559 1557 1555 1552 1549 1547 1544 1542 1539 1536 1533 1532 1529 1526 1524 1521 1519 1519 1518 1518 1517 1517 1518 1519 1519 1520 1522 1523 1524 1524
1582 1581 1580 1578 1577 1575 1573 1571 1569 1567 1565 1562 1559 1556 1554 1552 1549 1546 1543 1541 1538 1536 1533 1530 1527 1525 1523 1519 1515 1514 1512 1511 1511 1511 1510 1511 1512 1513 1514 1515 1516 1517 1518
1583 1582 1580 1578 1576 1573 1570 1568 1566 1564 1562 1560 1557 1555 1551 1548 1545 1542 1539 1536 1533 1530 1528 1525 1521 1518 1517 1514 1511 1505 1504 1505 1504 1504 1504 1504 1504 1506 1506 1507 1509 1510 1512
1582 1580 1579 1577 1575 1572 1569 1567 1563 1561 1558 1556 1553 1550 1547 1544 1540 1537 1534 1531 1527 1524 1522 1519 1516 1512 1512 1511 1508 1505 1498 1496 1496 1497 1497 1497 1497 1497 1497 1498 1500 1502 1503
1580 1579 1578 1576 1574 1571 1569 1565 1561 1558 1555 1551 1547 1544 1541 1537 1534 1530 1527 1524 1521 1518 1515 1514 1510 1507 1504 1506 1505 1507 1501 1495 1487 1491 1492 1491 1490 1490 1490 1491 1492 1494 1496
1579 1578 1576 1574 1572 1569 1566 1562 1558 1554 1548 1546 1541 1538 1535 1532 1529 1525 1521 1517 1514 1511 1508 1507 1505 1502 1499 1496 1497 1499 1499 1497 1493 1483 1483 1483 1483 1483 1484 1484 1485 1486 1488
1577 1576 1574 1571 1569 1566 1564 1560 1555 1550 1546 1540 1535 1530 1526 1524 1521 1517 1514 1511 1507 1505 1501 1499 1497 1495 1493 1490 1490 1488 1487 1488 1488 1485 1475 1474 1476 1475 1475 1477 1478 1479 1481
1575 1573 1570 1568 1565 1561 1556 1552 1548 1544 1538 1531 1528 1524 1521 1517 1514 1510 1506 1503 1499 1496 1493 1491 1489 1487 1485 1482 1481 1481 1479 1479 1477 1479 1474 1469 1465 1464 1466 1467 1468 1471 1474